TimeCDT,TemperatureF,Dew PointF,Humidity,Sea Level PressureIn,VisibilityMPH,Wind Direction,Wind SpeedMPH,Gust SpeedMPH,PrecipitationIn,Events,Conditions,WindDirDegrees,DateUTC
12:15 AM,57.2,56.3,97,30.22,10.0,Calm,Calm,-,N/A,,Clear,0,2013-10-25 05:15:00
12:35 AM,56.8,56.3,98,30.23,10.0,Calm,Calm,-,N/A,,Clear,0,2013-10-25 05:35:00
12:55 AM,57.0,56.3,97,30.23,10.0,Calm,Calm,-,N/A,,Clear,0,2013-10-25 05:55:00
1:15 AM,56.5,56.3,99,30.22,10.0,Calm,Calm,-,N/A,,Clear,0,2013-10-25 06:15:00
1:35 AM,56.8,56.3,98,30.23,10.0,Calm,Calm,-,N/A,,Clear,0,2013-10-25 06:35:00
1:55 AM,57.7,57.0,97,30.23,10.0,Calm,Calm,-,N/A,,Clear,0,2013-10-25 06:55:00
2:15 AM,56.8,56.7,99,30.23,10.0,Calm,Calm,-,N/A,,Clear,0,2013-10-25 07:15:00
2:35 AM,55.9,55.8,99,30.23,10.0,Calm,Calm,-,N/A,,Clear,0,2013-10-25 07:35:00
2:55 AM,56.3,56.3,100,30.23,10.0,Calm,Calm,-,N/A,,Clear,0,2013-10-25 07:55:00
3:15 AM,56.3,55.9,99,30.23,10.0,NNW,3.5,-,N/A,,Clear,330,2013-10-25 08:15:00
3:35 AM,58.6,58.6,100,30.23,10.0,NNW,5.8,-,N/A,,Clear,340,2013-10-25 08:35:00
3:55 AM,60.3,60.3,100,30.24,10.0,NNW,3.5,-,N/A,,Clear,340,2013-10-25 08:55:00
4:15 AM,60.3,60.3,100,30.24,10.0,Calm,Calm,-,N/A,,Clear,0,2013-10-25 09:15:00
4:35 AM,60.1,59.7,99,30.24,10.0,NNW,4.6,-,N/A,,Clear,340,2013-10-25 09:35:00
4:55 AM,61.0,60.1,97,30.25,10.0,NNW,8.1,-,N/A,,Clear,340,2013-10-25 09:55:00
5:15 AM,61.7,61.5,99,30.26,10.0,North,8.1,-,N/A,,Clear,10,2013-10-25 10:15:00
5:35 AM,64.4,62.2,93,30.27,10.0,North,10.4,-,N/A,,Clear,10,2013-10-25 10:35:00
5:55 AM,64.4,61.7,91,30.28,10.0,North,11.5,-,N/A,,Clear,10,2013-10-25 10:55:00
6:15 AM,63.9,61.0,90,30.29,10.0,North,12.7,-,N/A,,Clear,10,2013-10-25 11:15:00
6:35 AM,63.1,60.4,91,30.29,10.0,North,11.5,-,N/A,,Clear,360,2013-10-25 11:35:00
6:55 AM,62.6,60.1,91,30.30,10.0,North,13.8,18.4,N/A,,Clear,10,2013-10-25 11:55:00
7:15 AM,62.6,59.2,89,30.30,10.0,North,15.0,20.7,N/A,,Clear,10,2013-10-25 12:15:00
7:35 AM,62.2,58.6,88,30.31,10.0,NNE,13.8,20.7,N/A,,Clear,20,2013-10-25 12:35:00
7:55 AM,62.1,58.5,88,30.32,10.0,North,16.1,-,N/A,,Clear,10,2013-10-25 12:55:00
8:15 AM,62.6,58.6,87,30.33,10.0,NNE,13.8,-,N/A,,Clear,20,2013-10-25 13:15:00
8:35 AM,63.0,58.8,86,30.34,10.0,NNE,15.0,-,N/A,,Clear,20,2013-10-25 13:35:00
8:55 AM,63.1,58.3,84,30.35,10.0,NNE,13.8,19.6,N/A,,Clear,20,2013-10-25 13:55:00
9:15 AM,63.5,57.9,82,30.35,10.0,North,13.8,-,N/A,,Clear,10,2013-10-25 14:15:00
9:35 AM,63.7,57.4,80,30.36,10.0,North,16.1,20.7,N/A,,Clear,10,2013-10-25 14:35:00
9:55 AM,64.4,56.7,76,30.36,10.0,NNE,15.0,23.0,N/A,,Clear,20,2013-10-25 14:55:00
10:15 AM,65.3,56.8,74,30.36,10.0,NNE,12.7,21.9,N/A,,Clear,20,2013-10-25 15:15:00
10:35 AM,65.5,56.1,72,30.36,10.0,North,15.0,23.0,N/A,,Clear,10,2013-10-25 15:35:00
10:55 AM,65.7,55.6,70,30.36,10.0,NNE,16.1,23.0,N/A,,Clear,30,2013-10-25 15:55:00
11:15 AM,66.6,55.8,68,30.37,10.0,North,15.0,21.9,N/A,,Clear,10,2013-10-25 16:15:00
11:35 AM,66.7,55.2,66,30.36,10.0,North,16.1,23.0,N/A,,Clear,10,2013-10-25 16:35:00
11:55 AM,67.3,54.9,64,30.36,10.0,NNE,15.0,-,N/A,,Clear,20,2013-10-25 16:55:00
12:15 PM,67.8,54.9,63,30.35,10.0,NNE,17.3,21.9,N/A,,Clear,20,2013-10-25 17:15:00
12:35 PM,67.6,54.7,63,30.34,10.0,NNE,16.1,23.0,N/A,,Clear,30,2013-10-25 17:35:00
12:55 PM,68.2,54.5,62,30.34,10.0,North,13.8,20.7,N/A,,Clear,10,2013-10-25 17:55:00
1:15 PM,69.4,55.2,60,30.33,10.0,NNE,12.7,18.4,N/A,,Clear,20,2013-10-25 18:15:00
1:35 PM,68.9,54.7,60,30.32,10.0,NNE,15.0,19.6,N/A,,Clear,20,2013-10-25 18:35:00
1:55 PM,69.4,54.1,58,30.31,10.0,NNE,11.5,19.6,N/A,,Clear,30,2013-10-25 18:55:00
2:15 PM,69.3,54.1,59,30.31,10.0,NNE,10.4,17.3,N/A,,Clear,30,2013-10-25 19:15:00
2:35 PM,69.8,54.3,58,30.30,10.0,NNE,11.5,16.1,N/A,,Clear,30,2013-10-25 19:35:00
2:55 PM,70.0,54.3,57,30.29,10.0,NE,10.4,-,N/A,,Clear,40,2013-10-25 19:55:00
3:15 PM,70.0,53.6,56,30.30,10.0,NNE,9.2,-,N/A,,Clear,30,2013-10-25 20:15:00
3:35 PM,70.0,53.4,56,30.29,10.0,NE,10.4,17.3,N/A,,Clear,40,2013-10-25 20:35:00
3:55 PM,70.0,52.5,54,30.29,10.0,NNE,10.4,-,N/A,,Clear,30,2013-10-25 20:55:00
4:15 PM,69.6,51.1,52,30.29,10.0,NNE,8.1,11.5,N/A,,Clear,30,2013-10-25 21:15:00
4:35 PM,70.0,51.1,51,30.29,10.0,NNE,9.2,-,N/A,,Clear,20,2013-10-25 21:35:00
4:55 PM,69.8,51.4,52,30.28,10.0,NNE,6.9,-,N/A,,Clear,30,2013-10-25 21:55:00
5:15 PM,69.4,50.2,50,30.28,10.0,NNE,5.8,-,N/A,,Clear,20,2013-10-25 22:15:00
5:35 PM,68.5,50.0,52,30.28,10.0,NNE,6.9,-,N/A,,Clear,20,2013-10-25 22:35:00
5:55 PM,67.3,50.5,55,30.28,10.0,North,4.6,-,N/A,,Clear,350,2013-10-25 22:55:00
6:15 PM,64.8,51.1,61,30.28,10.0,NNW,8.1,-,N/A,,Clear,340,2013-10-25 23:15:00
6:35 PM,62.8,51.6,67,30.29,10.0,North,4.6,-,N/A,,Clear,350,2013-10-25 23:35:00
6:55 PM,61.2,52.0,72,30.29,10.0,North,3.5,-,N/A,,Clear,10,2013-10-25 23:55:00
7:15 PM,62.1,51.8,69,30.29,10.0,NNW,5.8,-,N/A,,Clear,340,2013-10-26 00:15:00
7:35 PM,59.9,51.8,75,30.30,10.0,North,4.6,-,N/A,,Clear,350,2013-10-26 00:35:00
7:55 PM,59.7,52.0,76,30.30,10.0,North,3.5,-,N/A,,Clear,360,2013-10-26 00:55:00
8:15 PM,59.4,52.9,79,30.30,10.0,NNE,3.5,-,N/A,,Clear,20,2013-10-26 01:15:00
8:35 PM,61.0,51.8,72,30.31,10.0,NNE,5.8,-,N/A,,Clear,20,2013-10-26 01:35:00
8:55 PM,61.9,50.9,67,30.31,10.0,NNE,6.9,-,N/A,,Clear,20,2013-10-26 01:55:00
9:15 PM,62.4,50.9,66,30.32,10.0,NNE,5.8,-,N/A,,Clear,20,2013-10-26 02:15:00
9:35 PM,62.6,50.5,65,30.32,10.0,NNE,6.9,-,N/A,,Clear,20,2013-10-26 02:35:00
9:55 PM,62.1,50.9,67,30.32,10.0,NNE,6.9,-,N/A,,Clear,20,2013-10-26 02:55:00
10:15 PM,62.1,50.0,65,30.32,10.0,NNE,8.1,-,N/A,,Clear,20,2013-10-26 03:15:00
10:35 PM,62.1,50.0,65,30.32,10.0,NNE,8.1,-,N/A,,Clear,20,2013-10-26 03:35:00
10:55 PM,61.7,50.4,66,30.32,10.0,NNE,8.1,-,N/A,,Clear,20,2013-10-26 03:55:00
11:15 PM,61.3,50.4,67,30.31,10.0,NNE,6.9,-,N/A,,Clear,20,2013-10-26 04:15:00
11:35 PM,60.6,51.4,72,30.31,10.0,NNE,5.8,-,N/A,,Clear,20,2013-10-26 04:35:00
11:55 PM,59.9,52.0,75,30.30,10.0,NNE,4.6,-,N/A,,Clear,30,2013-10-26 04:55:00